Time,TemperatureF,DewpointF,PressureIn,WindDirection,WindDirectionDegrees,WindSpeedMPH,WindSpeedGustMPH,Humidity,HourlyPrecipIn,Conditions,Clouds,dailyrainin,SoftwareType,DateUTC
2014-12-29 00:03:00,36.0,28.0,29.88,North,0,2.0,3.0,72,0.00,,,0.51,,2014-12-29 05:03:00,
2014-12-29 00:22:00,36.0,28.0,29.88,NW,315,1.0,2.0,72,0.00,,,0.51,,2014-12-29 05:22:00,
2014-12-29 00:33:00,36.0,28.0,29.88,NW,315,1.0,2.0,72,0.00,,,0.51,,2014-12-29 05:33:00,
2014-12-29 00:53:00,35.0,27.0,29.89,WNW,293,0.0,1.0,73,0.00,,,0.51,,2014-12-29 05:53:00,
2014-12-29 01:03:00,35.0,27.0,29.89,WNW,293,0.0,1.0,73,0.00,,,0.51,,2014-12-29 06:03:00,
2014-12-29 01:12:00,35.0,27.0,29.89,WNW,293,0.0,1.0,73,0.00,,,0.51,,2014-12-29 06:12:00,
2014-12-29 01:22:00,34.0,27.0,29.90,WNW,293,1.0,2.0,74,0.00,,,0.51,,2014-12-29 06:22:00,
2014-12-29 01:32:00,34.0,27.0,29.90,WNW,293,1.0,2.0,74,0.00,,,0.51,,2014-12-29 06:32:00,
2014-12-29 01:52:00,34.0,26.0,29.93,WNW,293,2.0,3.0,72,0.00,,,0.51,,2014-12-29 06:52:00,
2014-12-29 02:02:00,34.0,26.0,29.93,WNW,293,2.0,3.0,72,0.00,,,0.51,,2014-12-29 07:02:00,
2014-12-29 02:22:00,33.0,24.0,29.94,West,270,3.0,6.0,68,0.00,,,0.51,,2014-12-29 07:22:00,
2014-12-29 02:32:00,33.0,24.0,29.94,West,270,3.0,6.0,68,0.00,,,0.51,,2014-12-29 07:32:00,
2014-12-29 02:52:00,33.0,23.0,29.95,WNW,293,3.0,6.0,66,0.00,,,0.51,,2014-12-29 07:52:00,
2014-12-29 03:02:00,33.0,23.0,29.95,WNW,293,3.0,6.0,66,0.00,,,0.51,,2014-12-29 08:02:00,
2014-12-29 03:22:00,33.0,23.0,29.96,WNW,293,3.0,3.0,65,0.00,,,0.51,,2014-12-29 08:22:00,
2014-12-29 03:32:00,33.0,23.0,29.96,WNW,293,3.0,3.0,65,0.00,,,0.51,,2014-12-29 08:32:00,
2014-12-29 03:52:00,33.0,23.0,29.97,West,270,1.0,2.0,66,0.00,,,0.51,,2014-12-29 08:52:00,
2014-12-29 04:03:00,33.0,23.0,29.97,West,270,1.0,2.0,66,0.00,,,0.51,,2014-12-29 09:03:00,
2014-12-29 04:23:00,32.0,23.0,29.98,West,270,1.0,2.0,68,0.00,,,0.51,,2014-12-29 09:23:00,
2014-12-29 04:33:00,32.0,23.0,29.98,West,270,1.0,2.0,68,0.00,,,0.51,,2014-12-29 09:33:00,
2014-12-29 04:53:00,31.0,22.0,29.97,West,270,2.0,3.0,70,0.00,,,0.51,,2014-12-29 09:53:00,
2014-12-29 05:04:00,31.0,22.0,29.97,West,270,2.0,3.0,70,0.00,,,0.51,,2014-12-29 10:04:00,
2014-12-29 05:23:00,30.0,22.0,29.98,West,270,0.0,0.0,73,0.00,,,0.48,,2014-12-29 10:23:00,
2014-12-29 05:34:00,30.0,22.0,29.98,West,270,0.0,0.0,73,0.00,,,0.48,,2014-12-29 10:34:00,
2014-12-29 05:52:00,28.0,22.0,29.98,West,270,0.0,0.0,79,0.00,,,0.43,,2014-12-29 10:52:00,
2014-12-29 06:02:00,28.0,22.0,29.98,West,270,0.0,0.0,79,0.00,,,0.43,,2014-12-29 11:02:00,
2014-12-29 06:22:00,27.0,22.0,30.00,West,270,0.0,0.0,82,0.00,,,0.36,,2014-12-29 11:22:00,